Yiewsley, United Kingdom

1:53 AM BST on August 20, 2017 (GMT +0100)
Yiewsley

Weather History for 03772 - October, 2012

Change the Weather History Date:

Monday, October 15, 2012

  Actual Average Record
Temperature  
Mean Temperature 47 °F -  
Max Temperature 57 °F 54 °F - ()
Min Temperature 37 °F 42 °F - ()
Degree Days  
Heating Degree Days 18    
Moisture  
Dew Point 43 °F    
Average Humidity 83    
Maximum Humidity 100    
Minimum Humidity 58    
Precipitation  
Precipitation 0.01 in - - ()
Sea Level Pressure  
Sea Level Pressure 29.60 in    
Wind  
Wind Speed 6 mph ()    
Max Wind Speed 20 mph    
Max Gust Speed -    
Visibility 7.2 miles    
Events Rain    
T = Trace of Precipitation, MM = Missing Value Source: Averaged Metar Reports

Daily Weather History Graph

Daily Weather History Graph

Search for Another Location

Airport or City:

Trip Planner

Search our weather history database for the weather conditions in past years. The results will help you decide how hot, cold, wet, or windy it might be!

Date:

Astronomy

Oct. 15, 2012 Rise Set
Actual Time 7:26 AM BST 6:07 PM BST
Civil Twilight 6:52 AM BST 6:41 PM BST
Nautical Twilight 6:13 AM BST 7:20 PM BST
Astronomical Twilight 5:35 AM BST 7:58 PM BST
Moon 7:23 AM BST (10/15) 5:49 PM BST (10/15)
Length of Visible Light 11h 48m
Length of Day
10h 41m
Waning Crescent, 0% of the Moon is Illuminated
Oct 15
Waning Crescent
Oct 15
New
Oct 22
First Quarter
Oct 29
Full
Nov 7
Last Quarter

Hourly Weather History & Observations

Time (BST) Temp. Windchill Dew Point Humidity Pressure Visibility Wind Dir Wind Speed Gust Speed Precip Events Conditions
12:20 AM 41.0 °F 37.1 °F 39.2 °F 93% 29.62 in - WNW 5.8 mph - N/A   Clear
12:50 AM 41 °F - 39 °F 88% 29.65 in 10 mi West 3.5 mph - -  
12:50 AM 41.0 °F 38.0 °F 39.2 °F 93% 29.62 in - West 4.6 mph - N/A   Clear
1:20 AM 41.0 °F 39.0 °F 39.2 °F 93% 29.65 in 6.2 mi WNW 3.5 mph - N/A   Unknown
1:50 AM 41.0 °F 39.0 °F 39.2 °F 93% 29.65 in 6.2 mi West 3.5 mph - N/A   Unknown
2:20 AM 39.2 °F - 37.4 °F 93% 29.65 in 6.2 mi Variable 2.3 mph - N/A   Unknown
2:50 AM 41.0 °F 39.0 °F 39.2 °F 93% 29.65 in - West 3.5 mph - N/A   Clear
3:20 AM 39.2 °F 37.0 °F 37.4 °F 93% 29.65 in - West 3.5 mph - N/A   Clear
3:50 AM 37 °F - 36 °F 95% 29.65 in 7 mi West 1.2 mph - -  
3:50 AM 37.4 °F - 35.6 °F 93% 29.65 in - SSE 2.3 mph - N/A   Clear
4:20 AM 37.4 °F 34.9 °F 37.4 °F 100% 29.65 in - SSE 3.5 mph - N/A   Clear
4:50 AM 39.2 °F 35.9 °F 37.4 °F 93% 29.65 in - South 4.6 mph - N/A   Clear
5:20 AM 39.2 °F 35.9 °F 37.4 °F 93% 29.62 in - South 4.6 mph - N/A   Clear
5:50 AM 41.0 °F - 39.2 °F 93% 29.62 in - Variable 2.3 mph - N/A   Clear
6:20 AM 41.0 °F 39.0 °F 39.2 °F 93% 29.62 in - Variable 3.5 mph - N/A   Clear
6:50 AM 42 °F - 39 °F 87% 29.64 in 12 mi SW 2.3 mph - - Rain Rain
6:50 AM 41.0 °F 38.0 °F 39.2 °F 93% 29.62 in 6.2 mi SSW 4.6 mph - N/A   Scattered Clouds
7:20 AM 41.0 °F 37.1 °F 39.2 °F 93% 29.62 in 6.2 mi SW 5.8 mph - N/A   Partly Cloudy
7:50 AM 41.0 °F 36.4 °F 39.2 °F 93% 29.62 in 6.2 mi SW 6.9 mph - N/A   Partly Cloudy
8:20 AM 42.8 °F 39.3 °F 39.2 °F 87% 29.62 in - South 5.8 mph - N/A   Clear
8:50 AM 42.8 °F 40.1 °F 41.0 °F 93% 29.62 in 6.2 mi South 4.6 mph - N/A   Partly Cloudy
9:20 AM 44.6 °F 40.7 °F 41.0 °F 87% 29.62 in - SSW 6.9 mph - N/A   Clear
9:50 AM 47 °F - 42 °F 77% 29.63 in 10 mi SSW 8.1 mph - - Rain Light Rain Showers
9:50 AM 46.4 °F 41.9 °F 42.8 °F 87% 29.62 in - SSW 9.2 mph - N/A   Clear
10:20 AM 48.2 °F - 42.8 °F 82% 29.62 in 6.2 mi SW 10.4 mph - N/A   Partly Cloudy
10:50 AM 50.0 °F - 44.6 °F 82% 29.62 in 6.2 mi SSW 9.2 mph - N/A   Partly Cloudy
11:20 AM 50.0 °F - 44.6 °F 82% 29.62 in 6.2 mi SW 10.4 mph - N/A   Partly Cloudy
11:50 AM 51.8 °F - 46.4 °F 82% 29.59 in 6.2 mi WSW 11.5 mph - N/A   Partly Cloudy
12:20 PM 53.6 °F - 44.6 °F 72% 29.59 in 6.2 mi WSW 13.8 mph - N/A   Scattered Clouds
12:50 PM 54 °F - 46 °F 66% 29.60 in 25 mi WSW 12.7 mph - - Rain Rain
12:50 PM 53.6 °F - 44.6 °F 72% 29.59 in 6.2 mi WSW 13.8 mph - N/A   Scattered Clouds
1:20 PM 55.4 °F - 46.4 °F 72% 29.59 in 6.2 mi WSW 11.5 mph - N/A   Partly Cloudy
1:50 PM 55.4 °F - 46.4 °F 72% 29.59 in 6.2 mi WSW 12.7 mph - N/A   Partly Cloudy
2:20 PM 57.2 °F - 42.8 °F 59% 29.59 in 6.2 mi WSW 17.3 mph - N/A   Partly Cloudy
2:50 PM 55.4 °F - 41.0 °F 58% 29.59 in 6.2 mi West 19.6 mph - N/A   Partly Cloudy
3:20 PM 53.6 °F - 44.6 °F 72% 29.59 in 6.2 mi WSW 13.8 mph - N/A Rain Light Rain Showers
3:50 PM 53 °F - 45 °F 67% 29.59 in 25 mi West 9.2 mph - - Rain Rain
3:50 PM 53.6 °F - 44.6 °F 72% 29.59 in 6.2 mi West 9.2 mph - N/A   Partly Cloudy
4:20 PM 55.4 °F - 46.4 °F 72% 29.59 in 6.2 mi West 8.1 mph - N/A   Partly Cloudy
4:50 PM 55.4 °F - 44.6 °F 67% 29.59 in 6.2 mi West 5.8 mph - N/A   Scattered Clouds
5:20 PM 53.6 °F - 44.6 °F 72% 29.56 in 6.2 mi Variable 3.5 mph - N/A   Partly Cloudy
5:50 PM 55.4 °F - 44.6 °F 67% 29.56 in 6.2 mi SW 9.2 mph - N/A   Partly Cloudy
6:20 PM 55.4 °F - 46.4 °F 72% 29.56 in 6.2 mi SSW 11.5 mph - N/A   Partly Cloudy
6:50 PM 55 °F - 48 °F 69% 29.59 in 19 mi SW 15.0 mph - - Rain Light Rain Showers
6:50 PM 53.6 °F - 48.2 °F 82% 29.59 in 6.2 mi SW 15.0 mph - N/A   Partly Cloudy
7:20 PM 53.6 °F - 48.2 °F 82% 29.59 in - SW 12.7 mph - N/A   Clear
7:50 PM 51.8 °F - 48.2 °F 88% 29.56 in 6.2 mi SW 9.2 mph - N/A   Partly Cloudy
8:20 PM 51.8 °F - 48.2 °F 88% 29.56 in - South 8.1 mph - N/A   Clear
8:50 PM 51.8 °F - 48.2 °F 88% 29.56 in 6.2 mi South 9.2 mph - N/A Rain Light Rain Showers
9:20 PM 51.8 °F - 48.2 °F 88% 29.56 in - South 9.2 mph - N/A   Clear
9:50 PM 53 °F - 48 °F 78% 29.55 in 17 mi South 9.2 mph - - Rain Rain
9:50 PM 53.6 °F - 48.2 °F 82% 29.53 in - South 9.2 mph - N/A   Clear
10:20 PM 51.8 °F - 48.2 °F 88% 29.53 in 6.2 mi South 11.5 mph - N/A Rain Light Rain Showers
10:50 PM 51.8 °F - 48.2 °F 88% 29.53 in 6.2 mi South 9.2 mph - N/A Rain Light Rain Showers
11:20 PM 51.8 °F - 50.0 °F 94% 29.50 in 6.2 mi South 9.2 mph - N/A Rain Rain
11:50 PM 51.8 °F - 50.0 °F 94% 29.47 in 6.2 mi South 10.4 mph - N/A Rain Light Rain